#timestamp,LO_Frequency,Hit,StdDev 
1508983215.2,286046998.5,N
1508983235.1,286047000.9,N
1508983236.0,286047000.9,N
1508983255.8,286046998.8,N
1508983275.7,286046998.4,N
1508983295.5,286047000.6,N
1508983315.3,286046998.4,N
1508983335.2,286046998.1,N
1508983355.9,286046999.8,N
1508983375.7,286046999.9,N
1508983395.6,286047000.0,N
1508983415.4,286046999.9,N
1508983435.2,286047000.6,N
1508983455.1,286046998.6,N
1508983456.0,286046998.6,N
1508983475.8,286046998.7,N
1508983495.7,286046998.4,N
1508983515.5,286046998.5,N
1508983535.3,286047000.6,N
1508983555.2,286047002.2,N
1508983575.0,286047000.1,N
1508983575.9,286047000.1,N
1508983595.8,286047001.2,N
1508983615.6,286047001.1,N
1508983635.4,286047000.8,N
1508983655.3,286047000.8,N
1508983675.1,286047000.0,N
1508983695.9,286047000.2,N
1508983715.7,286047002.3,N
1508983735.5,286047001.1,N
1508983755.4,286046998.8,N
1508983775.2,286046999.3,N
1508983795.0,286046998.6,N
1508983795.9,286046998.6,N
1508983815.8,286047000.0,N
1508983835.6,286047001.0,N
1508983855.5,286047000.9,N
1508983875.3,286047001.1,N
1508983895.1,286047000.4,N
1508983915.9,286047011.9,Y
1508983935.7,286047000.6,P
1508983955.6,286047002.1,P
1508983975.4,286047002.4,N
1508983995.2,286047001.1,N
1508984015.1,286047001.2,N
1508984016.0,286047001.2,N
1508984035.8,286046998.5,N
1508984055.7,286046998.2,N
1508984075.5,286046996.9,N
1508984095.3,286047000.5,N
1508984115.2,286047000.3,N
1508984135.0,286047001.0,N
1508984135.9,286047001.0,N
1508984155.7,286047000.9,N
1508984175.6,286047001.2,N
1508984195.4,286046998.1,N
1508984215.3,286047001.1,N
1508984235.1,286047000.0,N
1508984255.8,286047002.6,N
1508984275.7,286047001.6,N
1508984295.5,286047002.7,N
1508984315.6,286047002.8,N
1508984335.4,286046999.8,N
1508984355.2,286047001.3,N
1508984375.1,286047003.6,N
1508984376.0,286047003.6,N
1508984395.8,286047001.4,N
1508984415.7,286047002.8,N
1508984435.5,286047000.9,N
1508984455.3,286047000.6,N
1508984475.2,286047000.6,N
1508984495.0,286047000.0,N
1508984495.9,286047000.0,N
1508984515.8,286046998.1,N
1508984535.6,286047000.5,N
1508984555.4,286047001.1,N
1508984575.3,286046999.0,N
1508984595.1,286046998.5,N
1508984615.9,286047001.1,N
1508984635.7,286046998.1,N
1508984655.5,286046998.2,N
1508984675.4,286047000.9,N
1508984695.2,286047000.1,N
1508984715.0,286047002.8,N
1508984715.9,286047002.8,N
1508984735.8,286046999.8,N
1508984755.6,286047000.3,N
1508984775.5,286046999.9,N
1508984795.3,286046998.1,N
1508984815.1,286047000.8,N
1508984835.9,286047000.9,N
1508984855.7,286047001.2,N
1508984875.5,286046999.5,N
1508984895.4,286046997.1,N
1508984915.2,286046997.7,N
1508984935.1,286046996.7,N
1508984936.0,286046996.7,N
1508984955.8,286046999.0,N
1508984975.6,286046999.0,N
1508984995.5,286047001.2,N
1508985015.3,286047001.1,N
1508985035.1,286046998.7,N
1508985055.9,286046996.5,N
1508985075.7,286046997.2,N
1508985095.6,286046997.3,N
1508985115.4,286046994.9,N
1508985135.2,286046995.7,N
1508985155.1,286046993.7,Y
1508985156.0,286046993.7,P
1508985175.8,286046997.1,N
1508985195.7,286046996.7,N
1508985215.5,286046996.8,N
1508985235.3,286046997.0,N
1508985255.2,286046995.3,Y
1508985275.0,286046998.3,P
1508985275.9,286046998.3,N
1508985295.8,286046999.3,N
1508985315.6,286046999.4,N
1508985335.4,286046999.0,N
1508985355.3,286046996.7,Y
1508985375.1,286046998.2,P
1508985395.9,286046998.9,P
1508985415.7,286046998.7,P
1508985435.5,286046996.9,Y
1508985455.4,286046998.4,P
1508985475.2,286047000.9,P
1508985495.0,286046999.9,N
1508985495.9,286046999.9,N
1508985515.8,286046998.9,N
1508985535.6,286046998.3,N
1508985555.5,286046998.2,N
1508985575.3,286046999.7,N
1508985595.1,286046999.8,N
1508985615.9,286047002.6,N
1508985635.7,286047002.7,N
1508985655.5,286047000.0,N
1508985675.4,286046999.7,N
1508985695.2,286047000.3,N
1508985715.1,286046999.8,N
1508985746.0,286047000.4,E
1508985755.0,286046998.8,N
1508985755.9,286046998.8,P
1508985775.8,286046999.3,P
1508985795.6,286047001.2,Y
1508985815.4,286047000.3,P
1508985835.3,286046998.5,N
1508985855.1,286046998.5,N
1508985875.9,286046998.6,N
1508985895.7,286046998.8,N
1508985915.5,286046998.7,N
1508985935.4,286047000.7,N
1508985955.2,286047002.7,Y
1508985975.0,286047002.8,P
1508985976.0,286047002.8,N
1508985995.8,286047000.2,N
1508986015.6,286047000.6,N
1508986035.5,286046999.0,N
1508986055.3,286046998.7,N
1508986075.1,286046999.1,N
1508986095.9,286046998.1,N
1508986115.7,286047001.1,N
1508986135.6,286047001.0,N
1508986155.4,286047002.7,N
1508986175.2,286047000.8,N
1508986195.1,286046999.8,N
1508986196.0,286046999.8,N
1508986215.8,286047000.8,N
1508986235.6,286046998.2,N
1508986255.5,286046998.6,N
1508986275.3,286047001.0,N
1508986295.2,286046998.2,N
1508986315.9,286047000.7,N
1508986335.7,286047000.7,N
1508986355.6,286046998.3,N
1508986375.4,286046999.0,N
1508986395.2,286046997.4,N
1508986415.1,286046997.3,N
1508986416.0,286046997.3,N
1508986435.8,286046999.2,N
1508986455.7,286046996.5,N
1508986475.5,286046997.2,N
1508986495.3,286046996.6,N
1508986515.2,286046997.5,N
1508986535.0,286046995.0,N
1508986535.9,286046995.0,N
1508986555.7,286046997.3,N
1508986575.6,286046997.4,N
1508986595.4,286046997.6,N
1508986615.3,286046997.6,N
1508986635.1,286046995.2,N
1508986636.0,286046995.2,N
1508986655.8,286046997.8,N
1508986675.7,286046997.6,N
1508986695.5,286046996.7,N
1508986715.3,286046999.4,N
1508986735.2,286046999.6,N
1508986755.0,286046997.3,N
1508986755.9,286046997.3,N
1508986775.8,286046998.1,N
1508986795.6,286046996.8,N
